Location: Mentone
(34.5413°N, 85.5351°W)
Time: 07:22:42
(UTC-05:00)

Tiros 1 despin weight - All Passes

Search period start: 24 June 2017 00:00
Search period end: 04 July 2017 00:00
Orbit: 595 x 643 km, 48.2° (Epoch: 23 June)

Date Brightness Start Highest point End Pass type
(mag) Time Alt. Az. Time Alt. Az. Time Alt. Az.
24 Jun - 00:21:53 10° WNW 00:25:34 26° SW 00:29:16 10° S visible
24 Jun - 14:27:56 10° SSE 14:30:20 14° SE 14:32:42 10° E daylight
24 Jun - 16:06:52 10° SW 16:11:26 86° NW 16:15:58 10° NE daylight
24 Jun - 17:49:57 10° WNW 17:53:30 22° NNW 17:57:01 10° NNE daylight
24 Jun - 19:34:04 10° NNW 19:36:23 14° N 19:38:41 10° NNE daylight
24 Jun - 21:15:43 10° NNW 21:19:15 23° NNE 21:22:45 10° ENE visible
24 Jun - 22:56:49 10° NW 23:01:15 87° SW 23:05:40 10° SE visible
25 Jun - 00:40:37 10° WSW 00:42:16 12° SW 00:43:55 10° SSW visible
25 Jun - 14:43:02 10° SSW 14:47:03 30° SE 14:51:01 10° ENE daylight
25 Jun - 16:24:08 10° WSW 16:28:31 45° NNW 16:32:51 10° NE daylight
25 Jun - 18:08:04 10° NW 18:10:57 16° NNW 18:13:50 10° NNE daylight
25 Jun - 19:51:21 10° NNW 19:53:57 15° N 19:56:32 10° NE daylight
25 Jun - 21:32:28 10° NW 21:36:33 35° NNE 21:40:36 10° E visible
25 Jun - 23:14:00 10° WNW 23:18:09 40° SW 23:22:16 10° SSE visible
26 Jun - 14:59:21 10° SW 15:03:54 65° SE 15:08:23 10° ENE daylight
26 Jun - 16:41:51 10° W 16:45:45 27° NNW 16:49:37 10° NE daylight
26 Jun - 18:26:04 10° NW 18:28:30 14° N 18:30:55 10° NNE daylight
26 Jun - 20:08:16 10° NNW 20:11:28 19° NNE 20:14:38 10° ENE daylight
26 Jun - 21:49:17 10° NW 21:53:42 64° NE 21:58:04 10° ESE visible
26 Jun - 23:31:49 10° W 23:34:54 19° SW 23:37:59 10° S visible
27 Jun - 13:36:15 10° S 13:39:37 20° SE 13:42:58 10° E daylight
27 Jun - 15:16:20 10° WSW 15:20:53 64° NW 15:25:23 10° NE daylight
27 Jun - 16:59:51 10° WNW 17:03:08 19° NNW 17:06:23 10° NNE daylight
27 Jun - 18:43:40 10° NNW 18:46:05 14° N 18:48:29 10° NE daylight
27 Jun - 20:25:02 10° NW 20:28:51 27° NNE 20:32:38 10° E visible
27 Jun - 22:06:18 10° WNW 22:10:41 63° SW 22:15:01 10° SE visible
28 Jun - 13:52:02 10° SSW 13:56:23 42° SE 14:00:42 10° ENE daylight
28 Jun - 15:33:48 10° W 15:38:01 35° NNW 15:42:13 10° NE daylight
28 Jun - 17:17:57 10° NW 17:20:38 15° N 17:23:18 10° NNE daylight
28 Jun - 19:00:46 10° NNW 19:03:38 16° NNE 19:06:30 10° NE daylight
28 Jun - 20:41:49 10° NW 20:46:05 45° NNE 20:50:20 10° ESE visible
28 Jun - 22:23:42 10° WNW 22:27:30 29° SW 22:31:18 10° SSE visible
29 Jun - 12:30:04 10° SSE 12:32:13 13° SE 12:34:22 10° E daylight
29 Jun - 14:08:40 10° SW 14:13:18 89° SE 14:17:53 10° NE daylight
29 Jun - 15:51:40 10° WNW 15:55:20 23° NNW 15:58:58 10° NNE daylight
29 Jun - 17:35:48 10° NNW 17:38:12 14° N 17:40:36 10° NNE daylight
29 Jun - 19:17:36 10° NNW 19:21:06 22° NNE 19:24:34 10° ENE daylight
29 Jun - 20:58:42 10° NW 21:03:10 87° NE 21:07:34 10° SE visible
29 Jun - 22:42:10 10° W 22:44:13 13° SW 22:46:14 10° SSW visible
30 Jun - 12:44:57 10° SSW 12:48:55 28° SE 12:52:52 10° ENE daylight
30 Jun - 14:25:53 10° WSW 14:30:22 48° NNW 14:34:47 10° NE daylight
30 Jun - 16:09:45 10° NW 16:12:47 17° NNW 16:15:47 10° NNE daylight
30 Jun - 17:53:10 10° NNW 17:55:47 15° N 17:58:23 10° NE daylight
30 Jun - 19:34:20 10° NW 19:38:26 33° NNE 19:42:27 10° E daylight
30 Jun - 21:15:51 10° WNW 21:20:05 44° SW 21:24:15 10° SSE visible
01 Jul - 13:01:11 10° SW 13:05:45 60° SE 13:10:16 10° ENE daylight
01 Jul - 14:43:33 10° W 14:47:34 29° NNW 14:51:34 10° NE daylight
01 Jul - 16:27:46 10° NW 16:30:19 15° N 16:32:51 10° NNE daylight
01 Jul - 18:10:07 10° NNW 18:13:18 19° NNE 18:16:27 10° ENE daylight
01 Jul - 19:51:09 10° NW 19:55:35 60° NE 19:59:58 10° ESE daylight
01 Jul - 21:33:33 10° W 21:36:50 20° SW 21:40:05 10° S visible
02 Jul - 11:38:14 10° S 11:41:30 19° SE 11:44:44 10° E daylight
02 Jul - 13:18:06 10° WSW 13:22:44 69° NW 13:27:19 10° NE daylight
02 Jul - 15:01:32 10° WNW 15:04:57 20° NNW 15:08:20 10° NNE daylight
02 Jul - 16:45:26 10° NNW 16:47:54 14° N 16:50:22 10° NE daylight
02 Jul - 18:26:54 10° NW 18:30:43 26° NNE 18:34:28 10° E daylight
02 Jul - 20:08:09 10° WNW 20:12:36 68° SW 20:16:58 10° SE daylight
03 Jul - 11:53:55 10° SSW 11:58:15 40° SE 12:02:34 10° ENE daylight
03 Jul - 13:35:32 10° W 13:39:52 38° NNW 13:44:09 10° NE daylight
03 Jul - 15:19:38 10° NW 15:22:27 16° N 15:25:14 10° NNE daylight
03 Jul - 17:02:35 10° NNW 17:05:28 16° NNE 17:08:20 10° NE daylight
03 Jul - 18:43:40 10° NW 18:47:58 42° NNE 18:52:11 10° ESE daylight
03 Jul - 20:25:29 10° WNW 20:29:26 31° SW 20:33:19 10° SSE visible
